Regional Weather Roundup
Issued by NWS

Home | Current Version | Previous Version | Text Only | Print | Product List | Glossary On
Versions: 1 2 3 4 5 6 7 8 9 10 11 12 13 14 15 16 17 18 19 20 21 22 23 24 25 26 27 28 29 30 31 32 33 34 35 36 37 38 39 40 41 42 43 44 45 46 47 48 49 50
000
ASUS43 KLMK 281610
RWRKY
KENTUCKY REGIONAL WEATHER ROUNDUP
NATIONAL WEATHER SERVICE LOUISVILLE KY
1200 PM EDT TUE MAR 28 2017

NOTE "FAIR" INDICATES FEW OR NO CLOUDS BELOW 12,000 FEET
WITH NO SIGNIFICANT WEATHER AND/OR OBSTRUCTIONS TO VISIBILITY.

KYZ001>023-026-027-061>063-070>075-281700-
WESTERN AND SOUTH CENTRAL KENTUCKY

CITY           SKY/WX    TMP DP  RH WIND       PRES   REMARKS
PADUCAH        CLOUDY    60  52  74 N7        30.06R
HENDERSON      CLOUDY    55  50  82 NW10      30.04R
OWENSBORO      FOG       55  54  96 NW10      30.04S VSB 1
HOPKINSVILLE   CLOUDY    58  58 100 W8        30.04R
BOWLING GREEN  CLOUDY    61  54  77 W5        30.03R
GLASGOW        CLOUDY    59  55  85 W5        30.02S
$$

KYZ024-025-028>034-038-045-046-053-281700-
NORTH CENTRAL KENTUCKY

CITY           SKY/WX    TMP DP  RH WIND       PRES   REMARKS
LOUISVILLE/SDF PTSUNNY   62  53  72 NW6       30.00R
LOUISVILLE/LOU CLOUDY    61  53  75 NW8       30.00S
FORT KNOX      CLOUDY    57  57 100 CALM      30.00R
$$

KYZ035>037-039>044-047>052-055>060-089>105-281700-
NORTHEAST KENTUCKY

CITY           SKY/WX    TMP DP  RH WIND       PRES   REMARKS
LEXINGTON      CLOUDY    59  53  80 W6        29.99S
COVINGTON      CLOUDY    57  53  86 N10       29.98R
FRANKFORT      CLOUDY    60  53  77 W7        29.98R
$$

KYZ054-064>069-076>088-106>120-281700-
SOUTHEAST KENTUCKY

CITY           SKY/WX    TMP DP  RH WIND       PRES   REMARKS
JACKSON        CLOUDY    58  54  86 W9        29.99R
LONDON         CLOUDY    59  53  80 W8        30.02R
SOMERSET       CLOUDY    57  52  82 CALM      30.03S
MIDDLESBORO    CLOUDY    63  53  72 NW7       30.01S
MONTICELLO     CLOUDY    58  54  86 W9        30.04S
$$




USA.gov is the U.S. government's official web portal to all federal, state and local government web resources and services.